EDT,Max TemperatureF,Mean TemperatureF,Min TemperatureF,Max Dew PointF,MeanDew PointF,Min DewpointF,Max Humidity, Mean Humidity, Min Humidity, Max Sea Level PressureIn, Mean Sea Level PressureIn, Min Sea Level PressureIn, Max VisibilityMiles, Mean VisibilityMiles, Min VisibilityMiles, Max Wind SpeedMPH, Mean Wind SpeedMPH, Max Gust SpeedMPH,PrecipitationIn, CloudCover, Events, WindDirDegrees
2014-5-1,72,60,48,53,48,36,80,65,50,29.96,29.77,29.65,10,10,6,30,9,42,0.08,7,Rain,259
2014-5-2,61,49,37,43,37,35,85,64,43,29.83,29.74,29.71,10,10,10,15,6,24,0.01,5,,257
2014-5-3,64,56,48,45,40,36,80,58,36,29.86,29.78,29.66,10,10,10,16,3,25,0.01,8,,188
2014-5-4,54,49,44,44,39,35,83,72,61,29.74,29.66,29.62,10,9,4,22,8,30,0.30,8,Rain,248
2014-5-5,60,50,40,40,38,36,83,63,43,29.91,29.84,29.75,10,10,7,15,6,21,0.03,6,Rain,297
2014-5-6,61,48,35,38,30,24,92,59,25,30.08,29.95,29.89,10,10,10,17,5,27,T,2,Rain,320
2014-5-7,62,46,30,34,28,25,85,55,25,30.24,30.18,30.10,10,10,10,13,3,18,0.00,0,,206
2014-5-8,73,55,37,45,35,30,82,55,27,30.18,30.13,30.04,10,10,10,10,3,15,T,1,,282
2014-5-9,64,58,51,56,51,43,78,70,61,30.16,30.09,29.98,10,10,10,15,6,24,0.00,8,,124
2014-5-10,77,69,61,61,55,33,84,58,31,29.96,29.83,29.74,10,10,3,15,7,26,0.06,6,Rain,235
2014-5-11,72,59,46,41,37,33,59,42,25,30.06,29.97,29.87,10,10,10,18,8,30,0.00,0,,251
2014-5-12,83,64,44,50,42,34,83,53,23,30.11,30.06,30.00,10,10,10,17,4,24,0.00,1,,226
2014-5-13,66,61,55,47,42,40,64,54,43,30.23,30.17,30.05,10,10,10,16,8,24,T,6,,102
2014-5-14,79,66,52,55,47,41,77,58,38,30.25,30.20,30.14,10,10,10,17,8,22,T,3,Rain,174
2014-5-15,74,69,64,63,60,56,81,74,66,30.23,30.15,30.08,10,10,9,21,11,30,T,8,Rain,147
2014-5-16,71,60,49,61,59,51,78,72,66,30.08,29.94,29.84,10,10,6,25,14,38,0.43,7,Rain,146
2014-5-17,60,49,38,50,42,35,93,68,42,30.15,29.96,29.82,10,8,1,16,6,26,0.60,5,Rain,257
2014-5-18,64,48,32,39,34,30,96,63,30,30.20,30.15,30.11,10,10,5,15,5,21,T,2,Rain,293
2014-5-19,68,51,34,38,33,27,89,56,22,30.19,30.12,30.05,10,10,10,17,6,25,0.00,1,,277
2014-5-20,72,54,35,43,37,32,92,59,25,30.13,30.05,29.98,10,10,10,21,5,29,0.00,0,,344
2014-5-21,77,58,38,50,42,37,92,60,27,30.00,29.93,29.86,10,10,10,12,2,14,0.00,2,,199
2014-5-22,64,57,49,57,52,47,93,80,67,29.86,29.83,29.81,10,10,6,14,4,21,0.05,5,Rain,126
2014-5-23,64,59,54,54,52,49,93,80,67,29.96,29.88,29.83,10,10,8,12,2,15,0.00,8,,227
2014-5-24,68,60,52,53,50,48,96,76,56,30.08,30.01,29.95,10,10,2,12,2,17,0.13,7,Rain,338
2014-5-25,76,61,46,54,50,44,100,68,35,30.09,30.06,30.00,10,5,0,10,3,16,0.00,4,Fog,208
2014-5-26,76,63,49,60,52,45,93,66,38,30.01,29.93,29.84,10,9,3,13,4,20,0.19,4,Rain,187
2014-5-27,83,68,52,60,55,49,96,71,45,29.89,29.82,29.71,10,10,6,23,6,31,0.35,4,Rain-Thunderstorm,138
2014-5-28,56,53,49,51,46,43,93,80,66,30.21,30.00,29.83,10,9,1,18,7,28,0.11,8,Rain-Thunderstorm,109
2014-5-29,68,52,36,46,41,35,93,64,34,30.24,30.18,30.10,10,10,10,9,2,14,0.00,2,,206
2014-5-30,72,59,46,51,48,44,96,70,44,30.11,30.08,30.01,10,10,5,18,4,24,0.01,3,Rain,276
2014-5-31,68,58,48,50,48,46,100,76,52,30.31,30.17,30.11,10,5,0,12,3,18,0.00,6,Fog,340